Weather History for Sanford, ME

Change the Weather History Date:

Friday, July 12, 2013

  Actual Average Record
Temperature  
Mean Temperature 69 °F -  
Max Temperature 78 °F 77 °F 91 °F (2011)
Min Temperature 60 °F 55 °F 44 °F (1999)
Cooling Degree Days 4    
Growing Degree Days 19 (Base 50)    
Moisture  
Dew Point 56 °F    
Average Humidity 65    
Maximum Humidity 88    
Minimum Humidity 47    
Precipitation  
Precipitation 0.00 in - - ()
Sea Level Pressure  
Sea Level Pressure 30.12 in    
Wind  
Wind Speed 7 mph (NE)    
Max Wind Speed 13 mph    
Max Gust Speed 17 mph    
Visibility 10 miles    
Events      
Averages and records for this station are not official NWS values.
T = Trace of Precipitation, MM = Missing Value Source: NWS Daily Summary

Daily Weather History Graph

Daily Weather History Graph

Search for Another Location

Airport:

Trip Planner

Search our weather history database for the weather conditions in past years. The results will help you decide how hot, cold, wet, or windy it might be!

Date:

Astronomy

Jul. 12, 2013 Rise Set
Actual Time 5:13 AM EDT 8:22 PM EDT
Civil Twilight 4:38 AM EDT 8:57 PM EDT
Nautical Twilight 3:54 AM EDT 9:42 PM EDT
Astronomical Twilight 3:00 AM EDT 10:35 PM EDT
Moon 9:36 AM EDT (7/12) 10:21 PM EDT (7/12)
Length of Visible Light 16h 18m
Length of Day
15h 09m
Waxing Crescent, 17% of the Moon is Illuminated
Jul 12
Waxing Crescent
Jul 15
First Quarter
Jul 22
Full
Jul 29
Last Quarter
Aug 6
New

Hourly Weather History & Observations

Time (EDT) Temp. Dew Point Humidity Pressure Visibility Wind Dir Wind Speed Gust Speed Precip Events Conditions
12:15 AM 68.0 °F 62.6 °F 83% 29.96 in 10.0 mi North 6.9 mph - N/A   Partly Cloudy
12:35 AM 68.0 °F 60.8 °F 78% 29.97 in 10.0 mi North 9.2 mph - N/A   Clear
12:55 AM 68.0 °F 59.0 °F 73% 29.97 in 10.0 mi North 8.1 mph - N/A   Clear
1:15 AM 66.2 °F 59.0 °F 78% 29.98 in 10.0 mi North 9.2 mph - N/A   Clear
1:35 AM 66.2 °F 57.2 °F 73% 29.98 in 10.0 mi North 9.2 mph - N/A   Clear
1:55 AM 66.2 °F 57.2 °F 73% 29.98 in 10.0 mi North 8.1 mph - N/A   Clear
2:15 AM 66.2 °F 57.2 °F 73% 29.99 in 10.0 mi North 6.9 mph - N/A   Clear
2:35 AM 66.2 °F 57.2 °F 73% 30.00 in 10.0 mi North 8.1 mph - N/A   Clear
2:55 AM 66.2 °F 55.4 °F 68% 30.00 in 10.0 mi North 10.4 mph - N/A   Clear
3:15 AM 66.2 °F 55.4 °F 68% 30.00 in 10.0 mi North 6.9 mph - N/A   Clear
3:35 AM 64.4 °F 55.4 °F 73% 30.01 in 10.0 mi North 9.2 mph - N/A   Partly Cloudy
3:55 AM 64.4 °F 55.4 °F 73% 30.02 in 10.0 mi NNE 9.2 mph - N/A   Mostly Cloudy
4:15 AM 64.4 °F 55.4 °F 73% 30.03 in 10.0 mi North 8.1 mph - N/A   Overcast
4:35 AM 64.4 °F 55.4 °F 73% 30.03 in 10.0 mi North 8.1 mph - N/A   Overcast
5:15 AM 64.4 °F 55.4 °F 73% 30.05 in 10.0 mi North 9.2 mph - N/A   Clear
5:35 AM 64.4 °F 55.4 °F 73% 30.06 in 10.0 mi North 8.1 mph - N/A   Clear
5:55 AM 64.4 °F 55.4 °F 73% 30.07 in 10.0 mi North 9.2 mph - N/A   Clear
6:15 AM 64.4 °F 55.4 °F 73% 30.08 in 10.0 mi NNE 10.4 mph - N/A   Partly Cloudy
6:35 AM 66.2 °F 55.4 °F 68% 30.08 in 10.0 mi NNE 10.4 mph - N/A   Scattered Clouds
6:55 AM 66.2 °F 55.4 °F 68% 30.08 in 10.0 mi NNE 11.5 mph - N/A   Clear
7:15 AM 66.2 °F 55.4 °F 68% 30.09 in 10.0 mi NNE 10.4 mph 17.3 mph N/A   Clear
7:35 AM 66.2 °F 55.4 °F 68% 30.10 in 10.0 mi NNE 11.5 mph - N/A   Clear
7:55 AM 66.2 °F 53.6 °F 64% 30.11 in 10.0 mi NNE 12.7 mph - N/A   Mostly Cloudy
8:15 AM 66.2 °F 55.4 °F 68% 30.11 in 10.0 mi NNE 11.5 mph - N/A   Partly Cloudy
8:35 AM 66.2 °F 55.4 °F 68% 30.12 in 10.0 mi NE 10.4 mph - N/A   Clear
8:55 AM 68.0 °F 53.6 °F 60% 30.12 in 10.0 mi NNE 12.7 mph - N/A   Clear
9:15 AM 69.8 °F 55.4 °F 60% 30.12 in 10.0 mi NNE 11.5 mph 17.3 mph N/A   Clear
9:35 AM 69.8 °F 55.4 °F 60% 30.13 in 10.0 mi NE 12.7 mph - N/A   Clear
9:55 AM 71.6 °F 55.4 °F 57% 30.13 in 10.0 mi NE 10.4 mph 16.1 mph N/A   Clear
10:15 AM 71.6 °F 55.4 °F 57% 30.14 in 10.0 mi NE 11.5 mph - N/A   Clear
10:36 AM 73.4 °F 55.4 °F 53% 30.14 in 10.0 mi NE 9.2 mph - N/A   Clear
10:55 AM 73.4 °F 57.2 °F 57% 30.15 in 10.0 mi NE 11.5 mph - N/A   Clear
11:15 AM 73.4 °F 57.2 °F 57% 30.15 in 10.0 mi NE 10.4 mph - N/A   Clear
11:35 AM 73.4 °F 55.4 °F 53% 30.15 in 10.0 mi East 6.9 mph - N/A   Clear
11:55 AM 75.2 °F 55.4 °F 50% 30.15 in 10.0 mi NNE 8.1 mph 16.1 mph N/A   Clear
12:15 PM 75.2 °F 55.4 °F 50% 30.15 in 10.0 mi ESE 9.2 mph - N/A   Clear
12:35 PM 75.2 °F 55.4 °F 50% 30.15 in 10.0 mi ENE 8.1 mph - N/A   Clear
12:55 PM 75.2 °F 55.4 °F 50% 30.15 in 10.0 mi East 4.6 mph - N/A   Clear
1:15 PM 77.0 °F 55.4 °F 47% 30.14 in 4.0 mi NNE 6.9 mph - N/A   Clear
1:35 PM 77.0 °F 57.2 °F 50% 30.14 in 10.0 mi North 6.9 mph - N/A   Clear
1:55 PM 78.8 °F 57.2 °F 47% 30.14 in 10.0 mi NE 5.8 mph - N/A   Clear
2:15 PM 78.8 °F 57.2 °F 47% 30.14 in 10.0 mi East 6.9 mph - N/A   Partly Cloudy
2:35 PM 78.8 °F 57.2 °F 47% 30.14 in 10.0 mi ENE 3.5 mph - N/A   Clear
2:55 PM 78.8 °F 57.2 °F 47% 30.15 in 10.0 mi SE 6.9 mph - N/A   Clear
3:15 PM 78.8 °F 59.0 °F 51% 30.15 in 10.0 mi East 9.2 mph - N/A   Partly Cloudy
3:35 PM 78.8 °F 57.2 °F 47% 30.14 in 10.0 mi Calm Calm - N/A   Clear
3:55 PM 77.0 °F 57.2 °F 50% 30.14 in 10.0 mi ESE 6.9 mph - N/A   Clear
4:15 PM 75.2 °F 57.2 °F 53% 30.14 in 10.0 mi SSE 5.8 mph - N/A   Clear
4:35 PM 75.2 °F 55.4 °F 50% 30.15 in 9.0 mi ESE 6.9 mph - N/A   Clear
4:55 PM 75.2 °F 55.4 °F 50% 30.15 in 10.0 mi ESE 3.5 mph - N/A   Clear
5:15 PM 73.4 °F 55.4 °F 53% 30.16 in 10.0 mi SE 5.8 mph - N/A   Clear
5:35 PM 71.6 °F 53.6 °F 53% 30.15 in 10.0 mi ESE 3.5 mph - N/A   Clear
5:55 PM 73.4 °F 55.4 °F 53% 30.15 in 10.0 mi ESE 5.8 mph - N/A   Clear
6:15 PM 71.6 °F 55.4 °F 57% 30.16 in 10.0 mi SE 3.5 mph - N/A   Clear
6:35 PM 71.6 °F 55.4 °F 57% 30.16 in 10.0 mi SE 3.5 mph - N/A   Clear
6:55 PM 71.6 °F 55.4 °F 57% 30.16 in 10.0 mi SE 3.5 mph - N/A   Clear
7:15 PM 71.6 °F 55.4 °F 57% 30.16 in 10.0 mi ESE 3.5 mph - N/A   Clear
7:35 PM 69.8 °F 55.4 °F 60% 30.17 in 10.0 mi Calm Calm - N/A   Clear
7:55 PM 69.8 °F 55.4 °F 60% 30.17 in 10.0 mi Calm Calm - N/A   Clear
8:15 PM 66.2 °F 57.2 °F 73% 30.18 in 10.0 mi Calm Calm - N/A   Clear
8:35 PM 64.4 °F 59.0 °F 83% 30.18 in 10.0 mi Calm Calm - N/A   Clear
8:55 PM 64.4 °F 59.0 °F 83% 30.19 in 10.0 mi Calm Calm - N/A   Clear
9:15 PM 62.6 °F 57.2 °F 82% 30.19 in 10.0 mi Calm Calm - N/A   Clear
9:35 PM 62.6 °F 57.2 °F 82% 30.20 in 10.0 mi Calm Calm - N/A   Clear
9:55 PM 62.6 °F 57.2 °F 82% 30.20 in 10.0 mi Calm Calm - N/A   Clear
10:15 PM 62.6 °F 57.2 °F 82% 30.21 in 10.0 mi Calm Calm - N/A   Clear
10:35 PM 62.6 °F 57.2 °F 82% 30.21 in 10.0 mi Calm Calm - N/A   Clear
10:55 PM 60.8 °F 57.2 °F 88% 30.21 in 10.0 mi Calm Calm - N/A   Clear
11:35 PM 60.8 °F 57.2 °F 88% 30.22 in 10.0 mi Calm Calm - N/A   Clear
11:55 PM 60.8 °F 57.2 °F 88% 30.22 in 10.0 mi Calm Calm - N/A   Clear